Parsons, KS

12:31 AM CDT on April 20, 2018 (GMT -0500)
Tri-City

Weather History for KPPF - October, 2012

Change the Weather History Date:

Monday, October 29, 2012

  Actual Average Record
Temperature  
Mean Temperature 50 °F -  
Max Temperature 64 °F 65 °F 89 °F (1950)
Min Temperature 37 °F 44 °F 23 °F (1952)
Degree Days  
Heating Degree Days 14    
Moisture  
Dew Point 29 °F    
Average Humidity 52    
Maximum Humidity 73    
Minimum Humidity 27    
Precipitation  
Precipitation 0.00 in - - ()
Sea Level Pressure  
Sea Level Pressure 30.23 in    
Wind  
Wind Speed 2 mph (South)    
Max Wind Speed 9 mph    
Max Gust Speed -    
Visibility 10 miles    
Events      
Averages and records for this station are not official NWS values.
T = Trace of Precipitation, MM = Missing Value Source: NWS Daily Summary

Daily Weather History Graph

Daily Weather History Graph

Search for Another Location

Airport or City:

Astronomy

Oct. 29, 2012 Rise Set
Actual Time 7:44 AM CDT 6:26 PM CDT
Civil Twilight 7:17 AM CDT 6:53 PM CDT
Nautical Twilight 6:46 AM CDT 7:24 PM CDT
Astronomical Twilight 6:16 AM CDT 7:54 PM CDT
Moon 6:20 PM CDT (10/29) 7:34 AM CDT (10/29)
Length of Visible Light 11h 36m
Length of Day
10h 42m
Full, 100% of the Moon is Illuminated
Oct 29
Full
Oct 29
Full
Nov 6
Last Quarter
Nov 13
New
Nov 20
First Quarter

Hourly Weather History & Observations

Time (CDT) Temp. Windchill Dew Point Humidity Pressure Visibility Wind Dir Wind Speed Gust Speed Precip Events Conditions
12:52 AM 42.1 °F - 30.0 °F 62% 30.29 in 10.0 mi Calm Calm - N/A   Overcast
1:52 AM 44.1 °F - 28.9 °F 55% 30.28 in 10.0 mi Calm Calm - N/A   Overcast
3:52 AM 42.1 °F - 28.9 °F 60% 30.28 in 10.0 mi Calm Calm - N/A   Partly Cloudy
4:52 AM 41.0 °F - 28.9 °F 62% 30.28 in 10.0 mi Calm Calm - N/A   Mostly Cloudy
5:52 AM 37.0 °F - 28.0 °F 70% 30.30 in 10.0 mi Calm Calm - N/A   Clear
6:52 AM 37.0 °F - 28.9 °F 73% 30.30 in 9.0 mi Calm Calm - N/A   Overcast
7:52 AM 39.0 °F - 30.0 °F 70% 30.32 in 10.0 mi Calm Calm - N/A   Overcast
9:52 AM 45.0 °F 42.6 °F 28.9 °F 53% 30.34 in 10.0 mi SSE 4.6 mph - N/A   Unknown
10:52 AM 51.1 °F - 28.9 °F 43% 30.31 in 10.0 mi SSE 8.1 mph - N/A   Clear
11:52 AM 55.0 °F - 30.0 °F 38% 30.30 in 10.0 mi Variable 5.8 mph - N/A   Clear
12:52 PM 59.0 °F - 28.0 °F 31% 30.27 in 10.0 mi SSE 8.1 mph - N/A   Clear
1:52 PM 60.1 °F - 28.9 °F 31% 30.22 in 10.0 mi South 6.9 mph - N/A   Clear
2:52 PM 62.1 °F - 28.9 °F 29% 30.18 in 10.0 mi SSW 9.2 mph - N/A   Clear
3:52 PM 64.0 °F - 28.9 °F 27% 30.17 in 10.0 mi Variable 6.9 mph - N/A   Clear
5:52 PM 60.1 °F - 28.0 °F 30% 30.14 in 10.0 mi South 4.6 mph - N/A   Clear
6:52 PM 52.0 °F - 28.0 °F 40% 30.15 in 10.0 mi Calm Calm - N/A   Clear
7:52 PM 46.9 °F - 30.0 °F 52% 30.14 in 10.0 mi Calm Calm - N/A   Clear
8:52 PM 48.0 °F - 30.0 °F 50% 30.14 in 10.0 mi Calm Calm - N/A   Clear
9:52 PM 41.0 °F - 30.9 °F 67% 30.14 in 10.0 mi Calm Calm - N/A   Clear
10:52 PM 37.9 °F - 30.0 °F 73% 30.13 in 10.0 mi Calm Calm - N/A   Clear
11:52 PM 37.9 °F - 30.0 °F 73% 30.11 in 10.0 mi Calm Calm - N/A   Clear